Tracking 20083 objects as of 9-Dec-2019
HD Live streaming from Space Station
objects crossing your sky now

FENGYUN 1C DEB

Track FENGYUN 1C DEB now!
10-day predictions


NORAD ID: 35169
Int'l Code: 1999-025DMZ
Perigee: 616.0 km
Apogee: 880.3 km
Inclination: 99.2 °
Period: 99.6 minutes
Semi major axis: 7119 km
RCS: 0.0083 m2 (small)
Launch date: May 10, 1999
Source: People's Republic of China (PRC)
Launch site: Taiyaun Space Center, China (TSC)

Note: This is SATELLITE DEBRIS
aabbcc
Your satellite tracking list
Your tracking list is empty




NASA's NSSDC Master Catalog

Two Line Element Set (TLE):
1 35169U 99025DMZ 19342.26820382  .00000212  00000-0  62942-4 0  9991
2 35169  99.1801   8.8408 0185608 181.8656 178.1862 14.45315301606681
Source of the keplerian elements: AFSPC